Flag for Israel Weather past 2 weeks in Ramat Gan, Israel

Now
61 °F

Clear.


Feels Like: 61 °F
Forecast: 54 / 65 °F
Wind: 2 mph from North

Location: Dov Airport

Current Time: Jan 27, 2015 at 9:10:09 PM

Latest Report: Jan 27, 2015 at 7:50 PM


Visibility: 10 mi

Pressure: 29.89 "Hg

Humidity: 52%

Dew point: 43 °F

Location of Ramat GanLocation

Historic Weather in Ramat Gan — Graph

°F

Ramat Gan temperature yesterday

Maximum temperature yesterday: 66 °F (at 9:50 AM)
Minimum temperature yesterday: 57 °F (at 5:50 AM)
Average temperature yesterday: 63 °F

Past Weeks' High & Low Weather Summary

 TemperatureHumidityPressure
High72 °F (Jan 21, 3:50 PM)94% (Jan 25, 7:50 PM)30.30 "Hg (Jan 25, 7:50 PM)
Low48 °F (Jan 12, 11:50 PM)31% (Jan 24, 9:50 AM)29.89 "Hg (Jan 24, 12:50 PM)
Average59 °F66%30.09 "Hg
* Reported Jan 12 7:50 PM — Jan 27 7:50 PM, Ramat Gan, Weather by CustomWeather, © 2014

Note: Actual official high and low records may vary slightly from our data, if they occured in-between our weather recording intervals... More about our weather records

Advertising

Ramat Gan weather history for previous 24 hours

 ConditionsComfort  
Time TempWeatherWind HumidityBarometerVisibility
7:50 PM
Jan 27
61 °FClear.2 mph52%29.89 "Hg10 mi
6:50 PM59 °FClear.2 mph55%29.89 "Hg10 mi
5:50 PM61 °FClear.2 mph52%29.89 "Hg10 mi
4:50 PM63 °FSunny.3 mph52%29.89 "Hg10 mi
3:50 PM64 °FSunny.6 mph46%29.89 "Hg10 mi
2:50 PM64 °FSunny.7 mph46%29.92 "Hg10 mi
1:50 PM66 °FSunny.6 mph37%29.92 "Hg10 mi
12:50 PM66 °FSunny.7 mph40%29.95 "Hg10 mi
11:50 AM64 °FSunny.9 mph37%29.98 "Hg10 mi
10:50 AM64 °FSunny.6 mph37%30.01 "Hg10 mi
9:50 AM63 °FPassing clouds.6 mph32%30.01 "HgN/A
8:50 AM59 °FSunny.6 mph42%30.04 "Hg10 mi
7:50 AM55 °FSunny.6 mph55%30.04 "Hg10 mi
6:50 AM55 °FSunny.5 mph59%30.01 "Hg10 mi
4:50 AM54 °FClear.2 mph72%30.04 "Hg10 mi
11:50 PM
Jan 26
57 °FClear.5 mph72%30.07 "Hg10 mi
10:50 PM59 °FClear.6 mph68%30.07 "Hg10 mi
9:50 PM61 °FPassing clouds.6 mph77%30.09 "HgN/A
Weather by CustomWeather, © 2014

See weather overviewHow to use our weather pages